| time (UTC) | temp F | wind direction | speed MPH | gust MPH | rain 1hr in | rain 24hr in | rain mn in | humidity % | barometer mb |
| 20260503234520 | 57 | 246 | 0.0 | 0.0 | 0.00 | 0.00 | 0.00 | 37 | 1014.0 |
| 20260503234018 | 58 | 246 | 0.0 | 0.0 | 0.00 | 0.00 | 0.00 | 36 | 1013.9 |
| 20260503233522 | 58 | 232 | 0.0 | 0.0 | 0.00 | 0.00 | 0.00 | 36 | 1013.9 |
| 20260503233020 | 58 | 241 | 0.0 | 0.0 | 0.00 | 0.00 | 0.00 | 36 | 1013.9 |
| 20260503232503 | 59 | 238 | 0.0 | 0.0 | 0.00 | 0.00 | 0.00 | 37 | 1013.8 |
| 20260503232012 | 59 | 229 | 0.0 | 0.0 | 0.00 | 0.00 | 0.00 | 36 | 1013.7 |
| 20260503231514 | 60 | 273 | 0.0 | 0.0 | 0.00 | 0.00 | 0.00 | 35 | 1013.7 |
| 20260503230343 | 61 | 304 | 0.0 | 0.0 | 0.00 | 0.00 | 0.00 | 34 | 1013.6 |
| 20260503225832 | 61 | 263 | 0.0 | 3.0 | 0.00 | 0.00 | 0.00 | 34 | 1013.6 |
| 20260503225337 | 61 | 288 | 0.0 | 3.0 | 0.00 | 0.00 | 0.00 | 33 | 1013.6 |
| 20260503224835 | 61 | 294 | 0.0 | 1.0 | 0.00 | 0.00 | 0.00 | 33 | 1013.6 |
| 20260503224322 | 61 | 269 | 0.0 | 3.0 | 0.00 | 0.00 | 0.00 | 33 | 1013.6 |
| 20260503223832 | 61 | 271 | 0.0 | 0.0 | 0.00 | 0.00 | 0.00 | 33 | 1013.6 |
| 20260503223325 | 61 | 306 | 0.0 | 0.0 | 0.00 | 0.00 | 0.00 | 33 | 1013.7 |
| 20260503222833 | 61 | 290 | 0.0 | 4.0 | 0.00 | 0.00 | 0.00 | 33 | 1013.7 |
| 20260503222322 | 61 | 254 | 0.0 | 0.0 | 0.00 | 0.00 | 0.00 | 34 | 1013.8 |
| 20260503221809 | 62 | 286 | 0.0 | 5.0 | 0.00 | 0.00 | 0.00 | 32 | 1013.8 |
| 20260503221312 | 61 | 267 | 0.0 | 2.0 | 0.00 | 0.00 | 0.00 | 34 | 1013.8 |
| 20260503220140 | 61 | 296 | 0.0 | 0.0 | 0.00 | 0.00 | 0.00 | 34 | 1013.8 |
| 20260503215639 | 61 | 263 | 0.0 | 8.0 | 0.00 | 0.00 | 0.00 | 34 | 1013.8 |
| 20260503215120 | 61 | 287 | 0.0 | 8.0 | 0.00 | 0.00 | 0.00 | 33 | 1013.8 |
| 20260503214608 | 61 | 292 | 0.0 | 8.0 | 0.00 | 0.00 | 0.00 | 34 | 1013.8 |
| 20260503214101 | 61 | 273 | 0.0 | 6.0 | 0.00 | 0.00 | 0.00 | 33 | 1013.8 |
| 20260503213555 | 61 | 253 | 0.0 | 0.0 | 0.00 | 0.00 | 0.00 | 33 | 1013.7 |
| 20260503213055 | 62 | 309 | 0.0 | 0.0 | 0.00 | 0.00 | 0.00 | 33 | 1013.7 |
| 20260503212539 | 62 | 248 | 0.0 | 8.0 | 0.00 | 0.00 | 0.00 | 31 | 1013.8 |
| 20260503212047 | 62 | 261 | 0.0 | 8.0 | 0.00 | 0.00 | 0.00 | 33 | 1013.7 |
| 20260503210928 | 61 | 355 | 0.0 | 1.0 | 0.00 | 0.00 | 0.00 | 33 | 1013.7 |
| 20260503210432 | 61 | 327 | 0.0 | 3.0 | 0.00 | 0.00 | 0.00 | 33 | 1013.8 |
| 20260503205919 | 61 | 271 | 0.0 | 9.0 | 0.00 | 0.00 | 0.00 | 32 | 1013.9 |
| 20260503205409 | 61 | 302 | 0.0 | 9.0 | 0.00 | 0.00 | 0.00 | 34 | 1013.8 |
| 20260503204915 | 61 | 311 | 0.0 | 0.0 | 0.00 | 0.00 | 0.00 | 35 | 1013.7 |
| 20260503204417 | 60 | 279 | 0.0 | 9.0 | 0.00 | 0.00 | 0.00 | 33 | 1013.8 |
| 20260503203907 | 60 | 236 | 0.0 | 13.0 | 0.00 | 0.00 | 0.00 | 34 | 1013.8 |
| 20260503203403 | 60 | 293 | 0.0 | 13.0 | 0.00 | 0.00 | 0.00 | 35 | 1013.7 |
| 20260503202851 | 60 | 296 | 1.0 | 13.0 | 0.00 | 0.00 | 0.00 | 33 | 1013.9 |
| 20260503202343 | 60 | 292 | 0.0 | 9.0 | 0.00 | 0.00 | 0.00 | 32 | 1013.8 |
| 20260503201852 | 60 | 234 | 0.0 | 9.0 | 0.00 | 0.00 | 0.00 | 32 | 1014.1 |
| 20260503201348 | 61 | 247 | 0.0 | 13.0 | 0.00 | 0.00 | 0.00 | 32 | 1014.2 |
| 20260503200842 | 61 | 66 | 0.0 | 13.0 | 0.00 | 0.00 | 0.00 | 34 | 1014.1 |
| 20260503200343 | 60 | 266 | 1.0 | 13.0 | 0.00 | 0.00 | 0.00 | 34 | 1014.2 |
| 20260503195835 | 60 | 311 | 0.0 | 13.0 | 0.00 | 0.00 | 0.00 | 34 | 1014.1 |
| 20260503195321 | 61 | 84 | 0.0 | 5.0 | 0.00 | 0.00 | 0.00 | 31 | 1014.2 |
| 20260503194827 | 61 | 347 | 0.0 | 0.0 | 0.00 | 0.00 | 0.00 | 35 | 1014.3 |
| 20260503194320 | 61 | 273 | 1.0 | 12.0 | 0.00 | 0.00 | 0.00 | 33 | 1014.4 |
| 20260503193823 | 61 | 246 | 1.0 | 12.0 | 0.00 | 0.00 | 0.00 | 32 | 1014.5 |
| 20260503193319 | 60 | 212 | 1.0 | 9.0 | 0.00 | 0.00 | 0.00 | 33 | 1014.5 |
| 20260503192819 | 60 | 257 | 1.0 | 10.0 | 0.00 | 0.00 | 0.00 | 33 | 1014.5 |
| 20260503192322 | 60 | 301 | 1.0 | 11.0 | 0.00 | 0.00 | 0.00 | 34 | 1014.6 |
| 20260503191811 | 59 | 157 | 2.0 | 11.0 | 0.00 | 0.00 | 0.00 | 33 | 1014.6 |
| 20260503191253 | 59 | 269 | 1.0 | 15.0 | 0.00 | 0.00 | 0.00 | 34 | 1014.7 |
| 20260503190759 | 59 | 248 | 2.0 | 15.0 | 0.00 | 0.00 | 0.00 | 35 | 1014.7 |
| 20260503190258 | 59 | 217 | 3.0 | 15.0 | 0.00 | 0.00 | 0.00 | 36 | 1014.7 |
| 20260503185808 | 59 | 271 | 1.0 | 15.0 | 0.00 | 0.00 | 0.00 | 36 | 1014.8 |
| 20260503185306 | 59 | 243 | 1.0 | 10.0 | 0.00 | 0.00 | 0.00 | 36 | 1015.0 |
| 20260503184750 | 59 | 248 | 1.0 | 8.0 | 0.00 | 0.00 | 0.00 | 38 | 1015.0 |
| 20260503183618 | 58 | 277 | 2.0 | 14.0 | 0.00 | 0.00 | 0.00 | 43 | 1015.1 |
| 20260503183125 | 57 | 313 | 1.0 | 14.0 | 0.00 | 0.00 | 0.00 | 37 | 1015.2 |
| 20260503182624 | 58 | 198 | 0.0 | 10.0 | 0.00 | 0.00 | 0.00 | 37 | 1015.4 |
| 20260503182117 | 58 | 319 | 1.0 | 11.0 | 0.00 | 0.00 | 0.00 | 38 | 1015.3 |
| 20260503181615 | 58 | 292 | 1.0 | 7.0 | 0.00 | 0.00 | 0.00 | 40 | 1015.3 |
| 20260503180513 | 56 | 280 | 1.0 | 12.0 | 0.00 | 0.00 | 0.00 | 40 | 1015.4 |
| 20260503180024 | 56 | 283 | 2.0 | 12.0 | 0.00 | 0.00 | 0.00 | 38 | 1015.5 |
| 20260503174908 | 57 | 284 | 1.0 | 11.0 | 0.00 | 0.00 | 0.00 | 39 | 1015.5 |
| 20260503174412 | 57 | 216 | 2.0 | 11.0 | 0.00 | 0.00 | 0.00 | 39 | 1015.5 |
| 20260503173903 | 57 | 286 | 1.0 | 11.0 | 0.00 | 0.00 | 0.00 | 39 | 1015.5 |
| 20260503172751 | 56 | 281 | 2.0 | 12.0 | 0.00 | 0.00 | 0.00 | 41 | 1015.7 |
| 20260503172232 | 56 | 245 | 2.0 | 12.0 | 0.00 | 0.00 | 0.00 | 41 | 1015.6 |
| 20260503171741 | 56 | 257 | 1.0 | 12.0 | 0.00 | 0.00 | 0.00 | 43 | 1015.6 |
| 20260503171229 | 55 | 37 | 1.0 | 6.0 | 0.00 | 0.00 | 0.00 | 42 | 1015.7 |
| 20260503170728 | 55 | 290 | 0.0 | 11.0 | 0.00 | 0.00 | 0.00 | 43 | 1015.8 |
| 20260503170221 | 55 | 267 | 0.0 | 12.0 | 0.00 | 0.00 | 0.00 | 45 | 1015.7 |
| 20260503160118 | 53 | 275 | 2.0 | 11.0 | 0.00 | 0.00 | 0.00 | 42 | 1016.3 |
| 20260503150634 | 51 | 323 | 2.0 | 10.0 | 0.00 | 0.00 | 0.00 | 45 | 1016.4 |
| 20260503150125 | 51 | 57 | 1.0 | 10.0 | 0.00 | 0.00 | 0.00 | 47 | 1016.5 |
| 20260503131354 | 45 | 319 | 0.0 | 4.0 | 0.00 | 0.00 | 0.00 | 57 | 1016.5 |
| 20260503130844 | 45 | 252 | 0.0 | 11.0 | 0.00 | 0.00 | 0.00 | 59 | 1016.5 |
| 20260503130333 | 44 | 267 | 0.0 | 7.0 | 0.00 | 0.00 | 0.00 | 59 | 1016.5 |
| 20260503120125 | 40 | 234 | 0.0 | 7.0 | 0.00 | 0.00 | 0.00 | 55 | 1016.2 |
| 20260503110300 | 38 | 310 | 0.0 | 0.0 | 0.00 | 0.00 | 0.00 | 46 | 1015.5 |
| 20260503081407 | 39 | 241 | 0.0 | 7.0 | 0.00 | 0.00 | 0.00 | 37 | 1013.8 |
| 20260503080854 | 39 | 275 | 0.0 | 6.0 | 0.00 | 0.00 | 0.00 | 37 | 1013.8 |
| 20260503080402 | 39 | 282 | 0.0 | 0.0 | 0.00 | 0.00 | 0.00 | 37 | 1013.8 |
| 20260503072600 | 40 | 308 | 0.0 | 0.0 | 0.00 | 0.01 | 0.00 | 38 | 1013.4 |
| 20260503072045 | 40 | 292 | 0.0 | 0.0 | 0.00 | 0.01 | 0.00 | 38 | 1013.3 |
| 20260503071536 | 40 | 293 | 0.0 | 0.0 | 0.00 | 0.01 | 0.00 | 39 | 1013.3 |
| 20260503071026 | 40 | 295 | 0.0 | 0.0 | 0.00 | 0.01 | 0.00 | 39 | 1013.2 |
| 20260503070520 | 40 | 239 | 0.0 | 0.0 | 0.00 | 0.01 | 0.00 | 39 | 1013.2 |
| 20260503054239 | 41 | 350 | 0.0 | 0.0 | 0.00 | 0.01 | 0.00 | 47 | 1013.0 |
| 20260503053738 | 41 | 254 | 0.0 | 0.0 | 0.00 | 0.01 | 0.00 | 48 | 1013.0 |
| 20260503053248 | 41 | 313 | 0.0 | 0.0 | 0.00 | 0.01 | 0.00 | 48 | 1013.0 |
| 20260503052734 | 42 | 0 | 0.0 | 0.0 | 0.00 | 0.01 | 0.00 | 48 | 1013.0 |
| 20260503052239 | 42 | 0 | 0.0 | 0.0 | 0.00 | 0.01 | 0.00 | 48 | 1012.8 |
| 20260503051100 | 42 | 300 | 0.0 | 0.0 | 0.00 | 0.01 | 0.00 | 47 | 1013.1 |
| 20260503050545 | 42 | 300 | 0.0 | 0.0 | 0.00 | 0.01 | 0.00 | 46 | 1013.2 |
| 20260503050036 | 41 | 288 | 0.0 | 0.0 | 0.00 | 0.01 | 0.00 | 46 | 1013.3 |
| 20260503045518 | 41 | 298 | 0.0 | 0.0 | 0.00 | 0.01 | 0.00 | 47 | 1013.4 |
| 20260503045014 | 41 | 303 | 0.0 | 0.0 | 0.00 | 0.01 | 0.00 | 49 | 1013.5 |
| 20260503044508 | 42 | 281 | 0.0 | 0.0 | 0.00 | 0.01 | 0.00 | 52 | 1013.5 |
| 20260503043949 | 42 | 281 | 0.0 | 0.0 | 0.00 | 0.01 | 0.00 | 54 | 1013.4 |
| 20260503043452 | 42 | 281 | 0.0 | 0.0 | 0.00 | 0.01 | 0.00 | 56 | 1013.4 |
| 20260503042939 | 42 | 281 | 0.0 | 0.0 | 0.00 | 0.01 | 0.00 | 57 | 1013.3 |
| 20260503042440 | 42 | 281 | 0.0 | 0.0 | 0.00 | 0.01 | 0.00 | 57 | 1013.4 |
| 20260503041934 | 42 | 281 | 0.0 | 0.0 | 0.00 | 0.02 | 0.00 | 58 | 1013.4 |
| 20260503041439 | 43 | 281 | 0.0 | 0.0 | 0.00 | 0.02 | 0.00 | 58 | 1013.5 |
| 20260503040929 | 43 | 281 | 0.0 | 0.0 | 0.00 | 0.02 | 0.00 | 59 | 1013.4 |
| 20260503040432 | 43 | 281 | 0.0 | 0.0 | 0.00 | 0.02 | 0.00 | 59 | 1013.5 |
| 20260503035936 | 43 | 281 | 0.0 | 0.0 | 0.00 | 0.02 | 0.02 | 60 | 1013.5 |
| 20260503035428 | 43 | 281 | 0.0 | 0.0 | 0.00 | 0.02 | 0.02 | 60 | 1013.7 |
| 20260503034928 | 44 | 281 | 0.0 | 0.0 | 0.00 | 0.02 | 0.02 | 60 | 1013.7 |
| 20260503034414 | 44 | 281 | 0.0 | 0.0 | 0.00 | 0.02 | 0.02 | 60 | 1013.6 |
| 20260503033912 | 44 | 281 | 0.0 | 0.0 | 0.00 | 0.02 | 0.02 | 60 | 1013.5 |
| 20260503033415 | 45 | 281 | 0.0 | 0.0 | 0.00 | 0.02 | 0.02 | 60 | 1013.5 |
| 20260503032246 | 45 | 281 | 0.0 | 0.0 | 0.00 | 0.03 | 0.02 | 60 | 1013.7 |
| 20260503031116 | 46 | 281 | 0.0 | 0.0 | 0.00 | 0.03 | 0.02 | 60 | 1013.6 |
| 20260503025940 | 46 | 281 | 0.0 | 3.0 | 0.00 | 0.03 | 0.02 | 60 | 1013.8 |
| 20260503024215 | 47 | 321 | 0.0 | 0.0 | 0.00 | 0.03 | 0.02 | 60 | 1013.8 |
| 20260503023712 | 47 | 300 | 0.0 | 4.0 | 0.00 | 0.03 | 0.02 | 60 | 1013.8 |
| 20260503022530 | 48 | 324 | 0.0 | 0.0 | 0.00 | 0.03 | 0.02 | 60 | 1013.9 |
| 20260503021403 | 48 | 295 | 0.0 | 0.0 | 0.00 | 0.03 | 0.02 | 59 | 1013.8 |
| 20260503020913 | 48 | 287 | 0.0 | 0.0 | 0.00 | 0.03 | 0.02 | 59 | 1013.8 |
| 20260503020404 | 49 | 317 | 0.0 | 1.0 | 0.00 | 0.03 | 0.02 | 58 | 1013.7 |
| 20260503015910 | 49 | 311 | 0.0 | 0.0 | 0.00 | 0.03 | 0.02 | 58 | 1013.7 |
| 20260503015358 | 49 | 351 | 0.0 | 0.0 | 0.00 | 0.03 | 0.02 | 58 | 1013.7 |
| 20260503014840 | 49 | 355 | 0.0 | 0.0 | 0.00 | 0.03 | 0.02 | 58 | 1013.7 |
| 20260503014328 | 49 | 37 | 0.0 | 0.0 | 0.00 | 0.03 | 0.02 | 57 | 1013.6 |
| 20260503013811 | 50 | 68 | 0.0 | 0.0 | 0.00 | 0.03 | 0.02 | 56 | 1013.6 |
| 20260503013305 | 50 | 5 | 0.0 | 0.0 | 0.00 | 0.03 | 0.02 | 56 | 1013.6 |
| 20260503012747 | 50 | 238 | 0.0 | 8.0 | 0.00 | 0.03 | 0.02 | 55 | 1013.5 |
| 20260503012229 | 50 | 312 | 0.0 | 0.0 | 0.00 | 0.03 | 0.02 | 55 | 1013.4 |
| 20260503011059 | 50 | 308 | 0.0 | 0.0 | 0.00 | 0.03 | 0.02 | 54 | 1013.3 |
| 20260503005918 | 50 | 301 | 0.0 | 10.0 | 0.00 | 0.03 | 0.02 | 55 | 1013.1 |
| 20260503005425 | 50 | 256 | 0.0 | 0.0 | 0.00 | 0.03 | 0.02 | 54 | 1013.0 |
| 20260503004920 | 50 | 256 | 0.0 | 0.0 | 0.00 | 0.03 | 0.02 | 54 | 1012.9 |
| 20260503004427 | 50 | 286 | 0.0 | 0.0 | 0.00 | 0.03 | 0.02 | 54 | 1012.8 |
| 20260503003922 | 51 | 236 | 0.0 | 0.0 | 0.00 | 0.03 | 0.02 | 54 | 1012.7 |
| 20260503003420 | 51 | 280 | 0.0 | 0.0 | 0.00 | 0.03 | 0.02 | 53 | 1012.6 |
| 20260503002905 | 51 | 306 | 0.0 | 0.0 | 0.00 | 0.03 | 0.02 | 53 | 1012.6 |
| 20260503002414 | 51 | 306 | 0.0 | 0.0 | 0.00 | 0.03 | 0.02 | 53 | 1012.5 |
| 20260503001902 | 51 | 306 | 0.0 | 0.0 | 0.00 | 0.03 | 0.02 | 52 | 1012.5 |
| 20260503001408 | 51 | 306 | 0.0 | 0.0 | 0.00 | 0.03 | 0.02 | 52 | 1012.4 |
| 20260503000858 | 51 | 308 | 0.0 | 0.0 | 0.00 | 0.03 | 0.02 | 51 | 1012.4 |
| 20260503000353 | 52 | 310 | 0.0 | 0.0 | 0.00 | 0.03 | 0.02 | 51 | 1012.3 |
| 20260502235838 | 52 | 281 | 0.0 | 0.0 | 0.00 | 0.03 | 0.02 | 51 | 1012.3 |